Skip Page Navigation
NASA JPL Caltech
NASA Logo - Jet Propulsion Laboratory + View the NASA Portal
+ Near-Earth Object (NEO) Program
Search JPL
JPL Home Earth Solar System Stars & Galaxies Technology
JPL Solar System Dynamics
BODIES ORBITS EPHEMERIDES TOOLS PHYSICAL DATA DISCOVERY FAQ SITE MAP
JPL Small-Body Database Browser
Search: [ help ]  
(2006 AM4)
Classification: Aten [NEO, PHA]          SPK-ID: 3311964
Ephemeris | Orbit Diagram | Orbital Elements | Physical Parameters | Close-Approach Data ]

[ hide orbit diagram ]
Orbit Diagram
Note: Make sure you have Java enabled on your browser to see the applet. This applet is provided as a 3D orbit visualization tool. The applet was implemented using 2-body methods, and hence should not be used for determining accurate long-term trajectories (over several years or decades) or planetary encounter circumstances. For accurate long-term ephemerides, please instead use our Horizons system.
Orbit Viewer

Additional Notes: the orbits shown in the applet are color coded. The planets are white lines, and the asteroid/comet is a blue line. The bright white line indicates the portion of the orbit that is above the ecliptic plane, and the darker portion is below the ecliptic plane. Likewise for the asteroid/comet orbit, the light blue indicates the portion above the ecliptic plane, and the dark blue the portion below the ecliptic plane.

Orbit Viewer applet originally written and kindly provided by Osamu Ajiki (AstroArts), and further modified by Ron Baalke (JPL).


Orbital Elements at Epoch 2456400.5 (2013-Apr-18.0) TDB
Reference: JPL 46 (heliocentric ecliptic J2000)
 Element Value Uncertainty (1-sigma)   Units 
e .6493129693803411 8.976e-08  
a .9819906623318865 1.6964e-08 AU
q .3443713894694014 9.0149e-08 AU
i 4.13133414041039 1.2789e-05 deg
node 123.2687475387194 2.5017e-05 deg
peri 139.6931952497139 2.6468e-05 deg
M 84.24520381782632 6.5186e-05 deg
tp 2456317.323211379763
(2013-Jan-24.82321138)
6.221e-05 JED
period 355.4344051209856
0.97
9.2105e-06
2.522e-08
d
yr
n 1.012845112384268 2.6246e-08 deg/d
Q 1.619609935194371 2.798e-08 AU
  Orbit Determination Parameters
   # obs. used (total)      183  
   # delay obs. used      5  
   # Doppler obs. used      0  
   data-arc span      737 days (2.02 yr)  
   first obs. used      2006-01-08  
   last obs. used      2008-01-15  
   planetary ephem.      DE405  
   SB-pert. ephem.      SB405-CPV-2  
   condition code      0  
   fit RMS      .56454  
   data source      ORB  
   producer      Otto Matic  
   solution date      2011-Sep-14 20:07:19  

Additional Information
 Earth MOID = .0110447 AU 
 T_jup = 5.958 
[ show covariance matrix ]

Ephemeris | Orbit Diagram | Orbital Elements | Physical Parameters | Close-Approach Data ]

Physical Parameter Table
Parameter Symbol Value Units Sigma Reference Notes
absolute magnitude H 21.788 mag .44612 46 autocmod 2.5a
rotation period rot_per 0.0847 h n/a Asteroid Lightcurve DataBase (Rev. 2013-May-01) Published Reference List:
[Hergenrother, C.W.; Whitely, R.J. (2011) Icarus 214, 194-209.]

[ show close-approach data ]
Ephemeris | Orbit Diagram | Orbital Elements | Physical Parameters | Close-Approach Data ]
ABOUT SSD CREDITS/AWARDS PRIVACY/COPYRIGHT GLOSSARY LINKS
FirstGov 2013-May-22 03:12 UT
(server date/time)  
NASA Home Page
Site Manager:   Donald K. Yeomans
Webmaster  Alan B. Chamberlin